Probability
0 0 0 0 0 0 0 0 0 0 0 0 0 0 0 0 0 0 0 0 0 0 0 0 0 0 0 0 0 1 2 3 2 1 1 0 0 0 1 0 0 0 0 0
0 0 0 0 0 0 0 0 0 0 0 0 0 0 0 0 0 0 0 0 0 0 0 0 0 0 0 0 0 0 1 2 2 2 1 1 0 0 1 0 0 0 0 0
0 0 0 0 0 0 0 0 0 0 0 0 0 0 0 0 0 0 0 0 0 0 0 0 0 1 0 0 0 0 0 1 1 2 2 1 0 1 1 0 0 0 0 0
0 0 0 0 0 0 0 0 0 0 0 0 0 0 0 0 0 0 0 0 0 0 0 0 0 0 0 0 0 0 0 0 0 1 2 1 1 1 1 1 2 1 1 0
0 0 0 0 0 0 0 0 0 0 0 0 0 0 0 0 0 0 0 0 0 0 0 0 0 0 0 0 0 1 2 1 0 0 1 1 2 2 2 2 3 3 2 1
0 0 0 0 0 0 0 0 0 0 0 0 0 0 0 0 0 0 0 0 0 0 0 0 0 0 1 1 1 1 2 2 1 0 0 1 1 2 2 3 3 3 3 1
0 0 0 0 0 0 0 0 0 0 0 0 0 0 0 0 0 0 0 0 0 0 0 0 0 0 1 2 2 2 2 2 1 1 1 0 1 2 3 2 2 3 3 1
0 0 0 0 0 0 0 0 0 0 0 0 0 0 0 0 0 0 0 0 0 0 0 0 0 0 0 1 2 3 3 2 1 1 1 1 2 4 3 2 2 2 2 1
0 0 0 0 0 0 0 0 0 0 0 0 0 0 0 0 0 0 0 0 0 0 0 0 0 0 0 0 1 2 2 2 1 1 1 1 2 4 4 4 3 3 2 1
0 0 0 0 0 0 0 0 0 0 0 0 0 0 0 0 0 0 0 0 0 0 0 0 0 0 0 0 0 1 1 1 1 0 0 1 1 3 5 6 5 4 3 3
0 0 0 0 0 0 0 0 0 0 0 0 0 0 0 0 0 0 0 0 0 0 0 0 0 0 0 0 0 0 0 0 0 0 0 0 0 1 4 6 6 5 4 4
0 0 0 0 0 0 0 0 0 0 0 0 0 0 0 0 0 0 0 0 0 0 0 0 0 0 0 0 0 0 0 0 0 0 0 0 0 1 2 4 5 6 6 6
0 0 0 0 0 0 0 0 0 0 0 0 0 0 0 0 0 0 0 0 0 0 0 0 0 0 0 0 0 0 0 0 0 0 0 0 0 0 1 1 3 4 5 6
0 0 0 0 0 0 0 0 0 0 0 0 0 0 0 0 0 0 0 0 0 0 0 0 0 0 0 0 0 0 0 0 0 0 0 0 0 0 0 0 1 1 3 4
0 0 0 0 0 0 0 0 0 0 0 0 0 0 0 0 0 0 0 0 0 0 0 0 0 0 0 0 0 0 0 0 0 0 0 0 0 0 1 1 0 0 1 2
0 0 0 0 0 0 0 0 0 0 0 0 0 0 0 0 0 0 0 0 0 0 0 0 0 0 0 0 0 0 0 0 0 0 0 0 0 0 1 1 0 0 1 1
0 0 0 0 0 0 0 0 0 0 0 0 0 0 0 0 0 0 0 0 0 0 0 0 0 0 0 0 0 0 0 0 0 0 0 0 0 0 1 1 0 0 0 0
0 0 0 0 0 0 0 0 0 0 0 0 0 0 0 0 0 0 0 0 0 0 0 0 0 0 0 0 0 0 0 0 0 0 0 0 0 0 0 0 0 0 0 1
0 0 0 0 0 0 0 0 0 0 0 0 0 0 0 0 0 0 0 0 0 0 0 0 0 0 0 0 0 0 0 0 0 0 0 0 0 0 0 0 0 0 0 1
0 0 0 0 0 0 0 0 0 0 0 0 0 0 0 0 0 0 0 0 0 0 0 0 0 0 0 0 0 0 0 0 0 0 0 0 0 0 0 0 0 0 0 1
0 0 0 0 0 0 0 0 0 0 0 0 0 0 0 0 0 0 0 0 0 0 0 0 0 0 0 0 0 0 0 0 0 0 0 0 0 0 0 0 0 0 0 0
0 0 0 0 0 0 0 0 0 0 0 0 0 0 0 0 0 0 0 0 0 0 0 0 0 0 0 0 0 0 0 0 0 0 0 0 0 0 0 0 0 0 0 0
0 0 0 0 0 0 0 0 0 0 0 0 0 0 0 0 0 0 0 0 0 0 0 0 0 0 0 0 0 0 0 0 0 0 0 0 0 0 0 0 0 0 0 0
0 0 0 0 0 0 0 0 0 0 0 0 0 0 0 0 0 0 0 0 0 0 0 0 0 0 0 0 0 0 0 0 0 0 0 0 0 0 0 0 0 0 0 0
0 0 0 0 0 0 0 0 0 0 0 0 0 0 0 0 0 0 0 0 0 0 0 0 0 0 0 0 0 0 0 0 0 0 0 0 0 0 0 0 0 0 0 0
0 0 0 0 0 0 0 0 0 0 0 0 0 0 0 0 0 0 0 0 0 0 0 0 0 0 0 0 0 0 0 0 0 0 0 0 0 0 0 0 0 0 0 0
Wind_Speed
2 3 5 7 9 6 6 8 9 7 4 7 12 14 12 9 8 9 9 8 7 7 5 3 3 4 5 6 7 8 9 9 8 7 7 7 8 7 7 7 8 9 9 9
2 4 4 4 5 6 6 8 9 6 4 6 10 14 11 9 10 9 9 9 9 7 5 3 2 2 3 4 5 7 8 8 8 7 6 5 6 6 7 6 7 9 9 9
3 2 3 3 5 7 8 8 7 6 5 5 8 10 10 8 7 6 6 7 8 7 7 5 3 2 2 3 4 5 6 7 7 7 6 4 4 5 6 7 6 7 8 9
3 2 2 3 5 6 8 6 5 5 5 4 4 7 6 5 4 4 5 5 5 5 4 3 3 3 2 3 3 4 4 5 5 6 6 8 7 7 8 6 5 6 7 8
2 2 3 4 5 5 5 3 4 5 6 6 6 7 6 3 4 4 4 3 3 3 3 2 2 2 3 3 2 2 2 2 3 4 6 8 8 7 5 5 6 6 6 7
2 2 3 3 3 3 2 2 2 3 4 7 8 8 6 3 4 2 1 2 2 2 2 2 2 2 2 3 3 3 2 1 2 2 4 6 7 7 6 6 5 5 5 5
2 1 1 1 1 2 2 2 2 3 5 6 4 7 5 2 2 1 2 4 4 3 3 3 4 3 3 4 3 3 3 2 2 1 2 3 5 6 6 6 5 5 4 5
1 1 1 2 3 3 4 5 3 3 3 2 3 7 2 2 2 3 3 4 5 4 4 4 4 4 4 4 3 3 3 3 3 2 2 2 2 2 2 3 3 3 3 4
1 3 2 2 3 3 3 3 2 1 2 3 4 3 3 1 1 3 4 5 6 6 6 5 5 5 5 4 4 3 3 3 4 4 3 2 2 2 2 3 2 2 2 2
2 3 4 2 1 2 2 2 2 2 2 4 4 5 4 3 1 3 5 6 7 8 8 7 6 6 5 5 4 4 3 3 3 4 4 3 3 3 3 2 3 3 3 3
1 2 2 1 2 3 2 2 2 2 2 3 4 3 2 2 2 4 5 7 8 8 8 7 7 6 6 5 5 5 4 4 4 4 4 4 4 3 3 3 3 3 3 3
1 2 2 3 3 3 2 3 3 3 3 4 4 3 1 2 3 5 7 7 7 7 7 7 7 6 6 6 6 5 5 5 5 4 4 4 4 4 4 4 4 4 4 4
2 1 1 1 2 1 1 2 2 2 2 4 6 5 0 3 6 7 7 7 7 7 7 7 6 6 6 6 5 5 5 5 5 5 4 4 4 4 4 4 4 4 4 4
2 1 3 4 3 3 4 5 4 4 5 6 9 10 7 8 8 8 8 8 7 7 7 7 6 6 6 6 5 5 5 5 5 5 4 5 5 5 5 4 4 4 4 4
1 2 3 6 7 7 8 9 8 8 8 9 9 10 11 9 8 8 8 7 7 6 7 7 7 6 6 6 5 5 5 5 5 4 4 5 5 5 5 5 5 4 4 4
2 1 2 5 5 6 8 10 10 10 10 11 12 13 8 6 6 7 7 7 7 7 7 7 7 7 6 6 5 5 5 5 4 4 4 4 4 5 5 5 5 5 5 4
1 1 2 4 6 5 6 7 7 6 6 7 9 8 4 6 7 8 8 7 7 7 7 7 7 7 6 6 6 5 5 4 4 4 4 4 4 4 5 5 4 4 5 5
3 2 1 3 3 6 3 2 4 6 6 6 6 6 6 7 8 7 6 5 6 7 7 7 6 7 6 6 5 5 5 4 4 4 4 5 5 5 5 4 4 5 4 4
5 4 2 2 4 8 7 3 3 5 6 5 6 7 7 6 6 5 4 5 6 7 7 6 6 6 6 6 5 5 4 4 4 4 5 5 5 5 5 5 5 5 5 4
3 4 3 3 5 7 4 1 1 3 6 3 4 5 6 5 7 6 6 7 8 8 6 6 6 6 6 6 5 4 5 5 5 6 6 5 5 5 5 5 5 5 4 4
2 3 5 6 7 9 6 2 2 4 4 1 3 5 6 7 8 8 8 8 8 8 7 6 6 5 5 5 5 5 6 6 6 6 6 5 5 5 5 5 4 4 4 4
6 6 6 5 7 10 3 4 6 5 2 4 5 6 7 9 9 9 9 9 9 9 8 7 6 6 5 5 5 6 7 6 5 5 5 6 5 5 4 4 4 4 4 3
9 8 5 9 9 5 4 6 5 4 5 6 7 8 8 9 10 11 10 10 9 9 8 6 6 7 6 5 5 7 7 6 5 5 5 6 5 5 4 4 4 3 3 3
7 5 6 9 12 10 9 9 8 7 8 8 8 8 8 10 11 11 10 9 9 8 6 5 5 6 7 6 5 6 6 5 5 6 6 5 5 5 4 4 4 3 3 4
8 6 7 11 12 10 9 10 9 8 8 8 8 7 8 10 11 10 9 9 8 7 6 5 6 7 8 7 7 6 5 5 6 6 5 5 5 5 4 4 4 5 4 4
10 11 10 12 9 8 8 6 6 7 8 8 8 9 8 8 9 9 8 7 7 7 6 6 7 7 7 7 7 6 5 5 5 5 5 5 4 4 4 4 4 6 6 7
Wind_Direction
130 193 216 219 223 251 244 243 247 254 274 250 249 257 260 258 249 250 253 256 261 263 270 270 252 238 230 225 224 223 221 218 212 208 211 215 219 220 222 224 227 223 222 221
170 231 255 260 247 245 247 248 254 267 281 265 264 264 264 260 252 249 253 258 263 269 271 264 260 245 237 236 233 229 225 222 219 220 218 223 223 223 225 225 227 226 224 222
219 280 241 235 236 238 245 247 252 268 291 272 273 263 251 253 255 254 259 261 261 264 270 274 282 263 247 250 254 248 238 230 226 227 224 221 223 224 220 224 226 226 225 224
236 263 242 225 236 236 247 254 262 265 261 254 246 266 254 262 250 246 253 256 263 267 279 295 306 309 305 282 271 263 259 248 236 224 223 222 223 230 230 227 224 223 220 224
232 237 236 236 250 245 251 256 260 256 253 256 233 252 263 250 248 250 245 263 282 290 295 306 312 304 312 317 311 287 276 273 262 237 232 232 236 241 244 235 225 222 221 224
278 268 252 253 267 247 260 230 256 252 238 242 232 232 262 241 255 274 323 346 333 318 314 321 338 359 0 359 358 346 352 342 318 280 252 240 240 242 243 244 240 231 226 225
317 253 263 245 213 180 216 203 201 205 213 238 222 224 252 317 326 321 341 352 351 351 343 342 347 353 6 11 9 7 14 5 359 336 295 274 254 245 245 249 248 249 240 233
287 286 234 228 227 227 219 213 222 228 227 245 210 230 249 14 35 33 17 11 7 2 356 353 351 350 356 4 7 11 10 2 6 6 333 319 319 292 278 274 272 270 265 257
265 282 303 274 262 209 192 213 248 293 315 266 240 256 266 279 6 15 13 13 8 3 359 353 350 348 350 358 1 3 8 8 9 7 360 358 353 343 335 328 318 312 317 311
291 271 305 307 246 196 219 185 172 195 233 246 255 247 237 221 281 353 359 354 351 356 0 357 354 352 351 355 3 12 17 16 13 16 13 5 5 358 346 346 353 345 332 327
288 253 298 278 216 213 181 184 190 184 237 251 264 263 347 273 313 337 339 342 349 353 352 352 354 358 2 6 12 17 15 15 15 13 8 6 3 359 357 353 344 334 325 324
318 280 270 269 283 272 234 210 201 215 220 234 257 268 358 283 328 338 343 347 349 351 354 355 357 2 6 10 11 11 11 9 4 1 360 359 359 359 359 349 336 332 324 321
317 267 276 215 172 145 220 212 222 239 232 230 240 252 1 321 329 332 335 338 344 351 356 358 0 1 360 360 360 3 5 4 0 358 356 353 354 354 352 342 336 335 327 324
320 233 249 266 295 296 274 268 252 234 235 238 241 260 278 302 317 327 333 336 340 346 350 352 354 355 356 351 350 353 355 357 357 356 355 354 349 344 339 337 338 337 331 326
344 253 261 275 287 285 275 273 265 249 240 241 255 264 279 297 308 315 322 328 333 339 345 347 344 344 344 345 345 346 344 350 351 350 351 350 346 346 347 347 345 342 335 327
355 259 287 284 294 296 280 270 260 254 247 245 256 270 285 297 315 322 325 328 329 332 335 336 336 336 335 336 336 334 331 335 338 340 339 341 342 345 345 344 344 344 340 335
284 204 271 276 313 306 271 257 241 242 242 240 253 270 303 310 311 310 314 321 324 324 328 332 333 330 328 327 324 321 321 323 326 328 331 335 337 337 337 336 338 338 334 331
226 212 242 288 317 253 261 328 258 250 266 262 266 283 293 297 302 302 310 314 317 321 322 326 326 324 323 320 318 318 321 323 320 321 326 330 329 327 329 329 329 329 326 322
219 205 208 232 264 276 290 273 237 240 271 268 263 280 295 306 302 292 317 320 307 308 307 306 311 313 314 318 317 315 315 315 312 311 313 315 313 312 314 317 319 319 315 312
177 192 203 217 250 257 268 274 246 246 267 273 273 290 299 303 295 302 321 313 306 304 304 304 306 309 309 314 315 308 304 304 302 302 302 302 299 296 298 302 305 307 304 303
179 199 215 229 249 265 266 264 190 222 267 294 276 286 290 283 284 300 304 302 302 300 300 299 298 298 301 308 306 294 292 291 297 302 299 296 293 291 291 294 295 298 299 299
205 203 206 205 229 253 209 169 210 250 285 274 281 288 288 285 291 296 298 299 299 297 297 294 292 292 297 301 294 287 287 294 298 296 291 289 289 287 287 288 291 293 290 290
222 216 212 213 233 269 218 226 250 258 261 273 280 286 287 287 290 293 295 295 294 293 291 289 285 287 291 292 283 280 287 296 294 287 284 284 287 284 281 276 276 279 277 276
241 226 233 253 259 261 259 259 262 263 267 275 278 281 280 281 285 286 287 290 291 291 288 287 283 282 285 287 282 278 287 289 284 280 282 282 282 283 280 273 265 262 262 266
235 209 231 255 268 278 261 247 254 263 267 271 276 275 274 278 280 282 285 286 287 288 287 284 278 279 284 291 289 287 286 281 278 279 280 279 274 275 274 269 265 264 260 259
215 213 223 245 245 245 264 260 248 253 260 263 271 279 278 273 276 282 283 286 286 285 286 284 280 279 283 287 287 289 286 273 269 274 276 274 273 271 270 274 276 265 267 273